Regional Weather Roundup
Issued by NWS

Home | Current Version | Previous Version | Graphics & Text | Print | Product List | Glossary On
Versions: 1 2 3 4 5 6 7 8 9 10 11 12 13 14 15 16 17 18 19 20 21 22 23 24 25 26 27 28 29 30 31 32 33 34 35 36 37 38 39 40 41 42 43 44 45 46 47 48 49 50
000
ASUS43 KMKX 030121
RWRWI

WISCONSIN REGIONAL WEATHER ROUNDUP
NATIONAL WEATHER SERVICE MILWAUKEE/SULLIVAN WI
800 PM CDT TUE JUN 02 2015

NOTE: "FAIR" INDICATES FEW OR NO CLOUDS BELOW 12,000 FEET WITH NO
SIGNIFICANT WEATHER AND/OR OBSTRUCTIONS TO VISIBILITY.

WIZ001-002-006>008-014>016-023>028-030200-
NORTHWEST WISCONSIN

CITY           SKY/WX    TMP DP  RH WIND       PRES   REMARKS
SUPERIOR ARPT  CLOUDY    49  40  70 N3        29.94F
ASHLAND        MOCLDY    70  49  47 S6        29.95S
HAYWARD        MOCLDY    69  49  48 S8        29.97R
SIREN          CLOUDY    69  52  54 S7        29.94F
CUMBERLAND     MOCLDY    66  52  59 S8        29.97S
RICE LAKE      MOCLDY    69  51  52 SE8       29.99R
CHETEK         MOCLDY    68  53  59 SE7       29.98S
LADYSMITH      MOCLDY    68  49  51 CALM      30.00S
EAU CLAIRE     PTCLDY    69  49  48 S13G18    29.98S
MENOMONIE      PTCLDY    70  51  51 SE13      29.97F
NEW RICHMOND   MOCLDY    69  52  53 S8        29.95S
OSCEOLA        CLOUDY    72  52  49 SE9       29.96S
$$

WIZ003>005-009-010-017-018-030200-
NORTH CENTRAL WISCONSIN

CITY           SKY/WX    TMP DP  RH WIND       PRES   REMARKS
MANITOWISH WTR MOCLDY    64  40  41 S5        30.01S
ARBOR VITAE    MOCLDY    65  39  38 S8        30.02S
WOODRUFF       MOCLDY    65  39  38 S8        30.02S
RHINELANDER    PTCLDY    67  39  35 S3        30.04S
EAGLE RIVER    PTCLDY    66  33  30 S3        30.02S
LAND O LAKES   CLEAR     68  33  27 S6        30.02F
PHILLIPS       CLOUDY    65  42  42 S8        30.00S
TOMAHAWK       MOCLDY    61  44  52 CALM      30.03F
MEDFORD        MOCLDY    63  46  52 SE6       30.01F
MERRILL        MOCLDY    67  43  42 S3        30.03F
$$

WIZ029-030-035-036-043>047-030200-
CENTRAL WISCONSIN

CITY           SKY/WX    TMP DP  RH WIND       PRES   REMARKS
WAUSAU         MOCLDY    68  43  40 S9        30.01F
MOSINEE        CLEAR     64  43  45 S7        30.04S
MARSHFIELD     MOCLDY    67  42  40 S7        30.02F
STEVENS POINT  PTCLDY    66  41  39 S6        30.03F
WAUPACA        PTCLDY    67  38  33 SE10      30.04F
WAUTOMA        PTCLDY    69  44  40 SE6       30.04F
WISC RAPIDS    PTCLDY    69  40  34 S5        30.04S
CAMP DOUGLAS   MOCLDY    68  46  45 SE5       30.02F
$$

WIZ011>013-019>022-031-037>040-048>050-030200-
NORTHEAST WISCONSIN

CITY           SKY/WX    TMP DP  RH WIND       PRES   REMARKS
ANTIGO         CLEAR     61  47  59 SE7       30.05S
SHAWANO        CLEAR     65  41  42 SE9       30.06S
OCONTO         CLEAR     62  38  41 S6        30.07R
STURGEON BAY   CLEAR     57  32  38 S6        30.11S
GREEN BAY      CLEAR     63  38  39 SE7       30.07F
MANITOWOC      CLEAR     55  47  74 SE5       30.09F
APPLETON       PTCLDY    63  37  39 SE10      30.07F
CLINTONVILLE   CLEAR     63  39  42 SE6       30.05F
OSHKOSH        CLEAR     64  44  48 SE9       30.05F
$$

WIZ032>034-041-042-053>061-030200-
SOUTHWEST WISCONSIN

CITY           SKY/WX    TMP DP  RH WIND       PRES   REMARKS
LA CROSSE      PTCLDY    72  50  45 S10       29.99F
SPARTA         CLEAR     67  46  45 S5        30.03R
VIROQUA        PTCLDY    67  48  50 S7        30.03S
BOSCOBEL       PTCLDY    69  48  47 S5        30.03S
PRAIRIE DU CHI CLEAR     70  47  44 SE5       30.01S
PLATTEVILLE    MOCLDY    69  47  46 SE6       30.04S
$$

WIZ056-057-062-063-064-067-068-030200-
SOUTH CENTRAL WISCONSIN

CITY           SKY/WX    TMP DP  RH WIND       PRES   REMARKS
REEDSBURG      MOCLDY    68  48  50 S3        30.03F
BARABOO/DELLS  MOCLDY    65  47  51 S3        30.04F
LONE ROCK      MOCLDY    70  41  34 SE5       30.03F
MINERAL POINT  MOCLDY    68  43  40 S3        30.04F
MADISON        MOCLDY    70  45  40 S8        30.04F
MIDDLETON      PTCLDY    71  42  34 S5        30.05F
WATERTOWN      CLEAR     65  47  50 SE5       30.05F
MONROE         PTCLDY    66  45  45 SE6       30.05F
JANESVILLE     CLEAR     70  43  37 S6        30.05S
$$

WIZ051-052-058>065-066-070>072-030200-
SOUTHEAST WISCONSIN

CITY           SKY/WX    TMP DP  RH WIND       PRES   REMARKS
MILWAUKEE      MOCLDY    56  44  64 SE7       30.09F
WAUKESHA       CLEAR     59  41  51 E8        30.10S
MILWAUKEE/TIMM CLEAR     61  36  39 E6        30.09F
RACINE         CLEAR     56  46  69 E5        30.11F
BURLINGTON     CLEAR     60  38  43 E3        30.09R
KENOSHA        CLEAR     56  46  69 E7        30.09F
FOND DU LAC    CLEAR     63  46  54 SE9       30.06F
SHEBOYGAN      CLEAR     57  44  62 SE5       30.09F
WEST BEND      CLEAR     57  41  54 E5        30.08F
JUNEAU         CLEAR     64  48  55 E10       30.07S
$$

LSZ147-162-030200-
LAKE SUPERIOR

STATION/POSITION TIME  TEMP    WIND        PRES    WAVE
                       AIR SEA DIR/SP/G            HT/PER
                 (UTC) (F)     (DEG/KT/KT) (MB)    (FT/S)
W MID LAKE BUOY  0050   45 37  100/ 10/ 12   N/A     1
DEVILS ISLAND    0100   57     140/  7/  9   N/A
PORT WING        0040   43      10/  5/  6   N/A
SAXON HARBOR     0000   76     200/  3/  7   N/A
$$

LMZ867-665-643>646-030200-
LAKE MICHIGAN

STATION/POSITION TIME  TEMP    WIND        PRES    WAVE
                       AIR SEA DIR/SP/G            HT/PER
                 (UTC) (F)     (DEG/KT/KT) (MB)    (FT/S)
CHAMBERS ISLAND  0000   63     160/  4/ 12   N/A
N MID LAKE BUOY  0050   42 37  180/  8/  8   N/A     0
NORTHPORT PIER   0000   52     140/ 13/ 13   N/A
SISTER BAY       0003   66     180/ 15/ 18   N/A
ALGOMA LAKESHORE 0009          200/  8/  9   N/A
KEWAUNEE LAKESHO 0000   53     180/  9/ 11   N/A
SHEBOYGAN LAKESH 0100   53     180/  9/  9   N/A
PORT WASHINGTON  0040   51      CALM  /  3   N/A
ATWATER BUOY     0100   47 49   20/  2/  2   N/A
MILWAUKEE LAKESH 0100   48      60/  4/  5   N/A
S MID LAKE BUOY  0050   44 38  360/  6/  6   N/A
KENOSHA   LAKESH 0100   52      CALM  /  2   N/A
$$

TC  - TEMPERATURE IN CELSIUS
VSB - VISIBILITY IN STATUTE MILES
WCI - WIND CHILL INDEX
HX  - HEAT INDEX




USA.gov is the U.S. government's official web portal to all federal, state and local government web resources and services.